Regional Weather Roundup
Issued by NWS Charleston, WV

Home | Current Version | Previous Version | Text Only | Print | Product List | Glossary Off
Versions: 1 2 3 4 5 6 7 8 9 10 11 12 13 14 15 16 17 18 19 20 21 22 23 24 25 26 27 28 29 30 31 32 33 34 35 36 37 38 39 40

000
ASUS41 KRLX 222310
RWRRLX
CRWRWRRLX ALL
West Virginia Regional Weather Roundup
National Weather Service Charleston WV
Issued by National Weather Service Pittsburgh PA
700 PM EDT WED MAR 22 2017

Note: "fair" indicates few or no clouds below 12,000 feet with no
significant weather and/or obstructions to visibility.

WVZ003-230000-
Northern Panhandle of West Virginia

CITY           SKY/WX    TMP DP  RH WIND       PRES   REMARKS
WHEELING       CLEAR     36   3  25 NW12      30.44R
$$

WVZ009-230000-
Northwest West Virginia

CITY           SKY/WX    TMP DP  RH WIND       PRES   REMARKS
PARKERSBURG    CLEAR     42  13  30 NW7       30.47R
$$

WVZ006-230000-
Western West Virginia

CITY           SKY/WX    TMP DP  RH WIND       PRES   REMARKS
HUNTINGTON     CLEAR     44  15  31 NE7       30.41R
$$

WVZ015-230000-
West Central West Virginia

CITY           SKY/WX    TMP DP  RH WIND       PRES   REMARKS
CHARLESTON     CLEAR     44  12  27 N9        30.39R
$$

WVZ031-230000-
North Central West Virginia

CITY           SKY/WX    TMP DP  RH WIND       PRES   REMARKS
CLARKSBURG     CLEAR     39   7  26 N7        30.41R
MORGANTOWN     CLEAR     38   8  29 N10       30.42R
$$

WVZ035-042-230000-
South Central West Virginia

CITY           SKY/WX    TMP DP  RH WIND       PRES   REMARKS
BECKLEY        CLEAR     40  11  30 N12       30.31R
BLUEFIELD      CLEAR     41  15  35 N7        30.29R
$$

WVZ045-230000-
Greenbrier Valley of West Virginia

CITY           SKY/WX    TMP DP  RH WIND       PRES   REMARKS
LEWISBURG      CLEAR     40   9  27 N3        30.31R
$$

WVZ047-230000-
Northern Mountains of West Virginia

CITY           SKY/WX    TMP DP  RH WIND       PRES   REMARKS
ELKINS         CLEAR     37   6  27 N10       30.36R
$$

WVZ052-230000-
Eastern Panhandle of West Virginia

CITY           SKY/WX    TMP DP  RH WIND       PRES   REMARKS
MARTINSBURG    CLEAR     41   3  20 N14       30.36R
PETERSBURG     CLEAR     42   8  24 NW10      30.38R
$$




USA.gov is the U.S. government's official web portal to all federal, state and local government web resources and services.